Showing default

HYPERFIELD-1B, 64552

Orbit data source: Space-Track

HYPERFIELD-1B, 64552 is a payload satellite owned by Kuva Space (FI) in SSO that was launched on Mon, 23 Jun 2025 UTC via an FALCON 9 launch vehicle from the Air Force Western Test Range (AFWTR). Payload-class satellites include a variety of spacecraft equipped with specific instruments for various scientific and technological missions. These include communications satellites like Starlink; space stations such as the ISS; scientific satellites like the Hubble; Earth observation satellites from companies like Planet Labs, Umbra, and HawkEye 360; GPS; miniature CubeSats for education and research; and military/defense satellites.

Loading next visibility...
Identifier
64552, 2025-135AA
Orbit
SSO
Country
Flag of FIFI / FIN
Related business
Manufacturer
Kuva Space
Mission
Operational Commercial Imaging
Bus & Motor
CUBESAT 6U, Unknown motor
Mass
12 kg wet, 12 kg dry
Launch date (UTC)
2025-06-23 (1 year ago)
Launch vehicle
FALCON 9
Launch site
Air Force Western Test Range (AFWTR)
Object type
Payload
Rocket body
Debris
Shape & HBR
Box + 2 Pan, 0.2 m
Radar Cross Section
0.092 m², Medium (>0.1 m² and < 1m²)

Expand to show TLE details & history
Last TLE update: 15 hours ago

TLE from 15 hours ago
0 HYPERFIELD-1B
1 64552U 25135AA  26207.56298961  .00004380  00000-0  19139-3 0  9992
2 64552  97.4704 322.6378 0002208 119.9366 240.2089 15.22624415 60871
Epoch: 2026-07-26T13:30Z
TLE epoch observation values (Epoch: 2026-07-26T13:30:42.302Z)
Latitude
-0.00009°
Longitude
175.70243°
Altitude
501.775 km
Speed
7.613 km/s
True Right ascension
21h 30m 33s
True Declination
0° 00' 00"
Sunlit
Object was in full shadow at epoch
Visualization orbit readout
Latitude
Unknown
Longitude
Unknown
Altitude
Unknown
Speed
Unknown
Apparent Right ascension
Unknown
Apparent Declination
Unknown
Sunlit
N/A
Visualization observer readout
Local Sidereal Time
17:28:48
Azimuth
Unknown
Elevation
Unknown
Doppler factor
Unknown
Orbital elements
Apogee altitude
496.411 km
Perigee altitude
493.376 km
Semi-major axis
6,873.03 km
Eccentricity
0.00022
Inclination
97.4704°
RAAN
322.6378°
Arg. of periapsis
119.9366°
True anomaly
240.18695°
Mean anomaly
240.2089°
Eccentric anomaly
240.19792°
Mean motion
3.80909 °/min
Orbital period
94.51 mins
BSTAR
0.00019139
Loading maneuver chart data...
Computing Atmospheric mass density...
Loading historical data...
Loading historical data...
Loading historical data...
Loading historical data...
Loading historical data...
Loading historical data...
Loading historical data...

Documentation

Showing up to 5 results
|